Location: Mexico
(19.4000°N, 99.1500°W)
Time: 14:06:12
(UTC-06:00)

ISS - Pass Details

Date: 24 March 2017
Orbit: 399 x 409 km, 51.6° (Epoch: 24 March)

Event Time Altitude Azimuth Distance (km) Brightness Sun altitude
Exits shadow 05:57:03 - 322° (NW) 2,227 -0.4 -10.2°
Reaches altitude 10° 05:58:54 10° 324° (NW) 1,464 -1.3 -9.8°
Maximum altitude 06:02:11 81° 51° (NE) 415 -3.7 -9.0°
Drops below altitude 10° 06:05:27 10° 139° (SE) 1,460 -0.5 -8.3°
Sets 06:07:32 0° 140° (SE) 2,317 0.6 -7.8°
